Time,TemperatureF,DewpointF,PressureIn,WindDirection,WindDirectionDegrees,WindSpeedMPH,WindSpeedGustMPH,Humidity,HourlyPrecipIn,Conditions,Clouds,dailyrainin,SoftwareType,DateUTC
2013-01-24 00:00:00,35.6,17.8,23.38,SW,225,2.0,2.5,48,0.00,,,0.00,WUHU216HW,2013-01-24 07:00:00,
2013-01-24 00:05:00,35.6,17.8,23.38,SW,225,2.0,2.5,48,0.00,,,0.00,WUHU216HW,2013-01-24 07:05:00,
2013-01-24 00:30:00,36.7,19.4,23.37,SW,225,2.2,2.2,49,0.00,,,0.00,WUHU216HW,2013-01-24 07:30:00,
2013-01-24 00:35:00,36.7,19.4,23.37,SW,225,2.2,2.2,49,0.00,,,0.00,WUHU216HW,2013-01-24 07:35:00,
2013-01-24 01:00:00,37.1,19.2,23.37,WSW,248,0.4,0.4,48,0.00,,,0.00,WUHU216HW,2013-01-24 08:00:00,
2013-01-24 01:05:00,37.1,19.2,23.37,WSW,248,0.4,0.4,48,0.00,,,0.00,WUHU216HW,2013-01-24 08:05:00,
2013-01-24 01:30:00,37.4,19.4,23.36,WSW,248,0.2,0.2,48,0.00,,,0.00,WUHU216HW,2013-01-24 08:30:00,
2013-01-24 01:35:00,37.4,19.4,23.36,WSW,248,0.2,0.2,48,0.00,,,0.00,WUHU216HW,2013-01-24 08:35:00,
2013-01-24 02:00:00,37.1,20.2,23.36,SW,225,0.0,0.0,50,0.00,,,0.00,WUHU216HW,2013-01-24 09:00:00,
2013-01-24 02:05:00,37.1,20.2,23.36,SW,225,0.0,0.0,50,0.00,,,0.00,WUHU216HW,2013-01-24 09:05:00,
2013-01-24 02:30:00,36.4,20.0,23.35,WNW,293,0.0,0.0,51,0.00,,,0.00,WUHU216HW,2013-01-24 09:30:00,
2013-01-24 02:35:00,36.4,20.0,23.35,WNW,293,0.0,0.0,51,0.00,,,0.00,WUHU216HW,2013-01-24 09:35:00,
2013-01-24 03:00:00,35.6,21.1,23.37,WSW,248,1.1,1.1,55,0.00,,,0.00,WUHU216HW,2013-01-24 10:00:00,
2013-01-24 03:05:00,35.6,21.1,23.37,WSW,248,1.1,1.1,55,0.00,,,0.00,WUHU216HW,2013-01-24 10:05:00,
2013-01-24 03:30:00,36.4,22.6,23.37,WSW,248,2.0,2.0,57,0.00,,,0.00,WUHU216HW,2013-01-24 10:30:00,
2013-01-24 03:35:00,36.4,22.6,23.37,WSW,248,2.0,2.0,57,0.00,,,0.00,WUHU216HW,2013-01-24 10:35:00,
2013-01-24 04:00:00,37.1,21.5,23.37,WSW,248,0.4,0.4,53,0.00,,,0.00,WUHU216HW,2013-01-24 11:00:00,
2013-01-24 04:05:00,37.1,21.5,23.37,WSW,248,0.4,0.4,53,0.00,,,0.00,WUHU216HW,2013-01-24 11:05:00,
2013-01-24 04:30:00,37.3,21.7,23.36,East,90,2.0,2.0,53,0.00,,,0.00,WUHU216HW,2013-01-24 11:30:00,
2013-01-24 04:35:00,37.3,21.7,23.36,East,90,2.0,2.0,53,0.00,,,0.00,WUHU216HW,2013-01-24 11:35:00,
2013-01-24 05:00:00,37.6,22.4,23.36,WNW,293,0.0,0.0,54,0.00,,,0.00,WUHU216HW,2013-01-24 12:00:00,
2013-01-24 05:05:00,37.6,22.4,23.36,WNW,293,0.0,0.0,54,0.00,,,0.00,WUHU216HW,2013-01-24 12:05:00,
2013-01-24 05:30:00,37.8,22.6,23.36,NNW,338,0.0,0.0,54,0.00,,,0.00,WUHU216HW,2013-01-24 12:30:00,
2013-01-24 05:35:00,37.8,22.6,23.36,NNW,338,0.0,0.0,54,0.00,,,0.00,WUHU216HW,2013-01-24 12:35:00,
2013-01-24 06:00:00,38.2,23.8,23.37,SSW,203,1.8,1.8,56,0.00,,,0.00,WUHU216HW,2013-01-24 13:00:00,
2013-01-24 06:05:00,38.2,23.8,23.37,SSW,203,1.8,1.8,56,0.00,,,0.00,WUHU216HW,2013-01-24 13:05:00,
2013-01-24 06:30:00,37.4,23.9,23.37,West,270,0.0,0.0,58,0.00,,,0.00,WUHU216HW,2013-01-24 13:30:00,
2013-01-24 06:35:00,37.4,23.9,23.37,West,270,0.0,0.0,58,0.00,,,0.00,WUHU216HW,2013-01-24 13:35:00,
2013-01-24 07:00:00,36.2,25.2,23.38,WNW,293,2.0,2.0,64,0.00,,,0.00,WUHU216HW,2013-01-24 14:00:00,
2013-01-24 07:05:00,36.2,25.2,23.38,WNW,293,2.0,2.0,64,0.00,,,0.00,WUHU216HW,2013-01-24 14:05:00,
2013-01-24 07:30:00,33.7,24.8,23.37,West,270,2.0,2.0,70,0.00,,,0.00,WUHU216HW,2013-01-24 14:30:00,
2013-01-24 07:35:00,33.7,24.8,23.37,West,270,2.0,2.0,70,0.00,,,0.00,WUHU216HW,2013-01-24 14:35:00,
2013-01-24 08:00:00,32.8,25.0,23.38,West,270,1.1,1.1,73,0.00,,,0.00,WUHU216HW,2013-01-24 15:00:00,
2013-01-24 08:05:00,32.8,25.0,23.38,West,270,1.1,1.1,73,0.00,,,0.00,WUHU216HW,2013-01-24 15:05:00,
2013-01-24 08:30:00,32.6,25.8,23.38,East,90,0.0,0.0,76,0.00,,,0.00,WUHU216HW,2013-01-24 15:30:00,
2013-01-24 08:35:00,32.6,25.8,23.38,East,90,0.0,0.0,76,0.00,,,0.00,WUHU216HW,2013-01-24 15:35:00,
2013-01-24 09:00:00,32.4,26.0,23.38,East,90,0.0,0.0,77,0.00,,,0.00,WUHU216HW,2013-01-24 16:00:00,
2013-01-24 09:05:00,32.4,26.0,23.38,East,90,0.0,0.0,77,0.00,,,0.00,WUHU216HW,2013-01-24 16:05:00,
2013-01-24 09:30:00,32.8,27.0,23.38,East,90,0.0,0.0,79,0.00,,,0.00,WUHU216HW,2013-01-24 16:30:00,
2013-01-24 09:35:00,32.8,27.0,23.38,East,90,0.0,0.0,79,0.00,,,0.00,WUHU216HW,2013-01-24 16:35:00,
2013-01-24 10:00:00,33.1,27.6,23.39,East,90,0.0,0.0,80,0.00,,,0.00,WUHU216HW,2013-01-24 17:00:00,
2013-01-24 10:05:00,33.1,27.6,23.39,East,90,0.0,0.0,80,0.00,,,0.00,WUHU216HW,2013-01-24 17:05:00,
2013-01-24 10:30:00,33.5,28.5,23.39,North,0,0.0,0.0,82,0.00,,,0.00,WUHU216HW,2013-01-24 17:30:00,
2013-01-24 10:35:00,33.5,28.5,23.39,North,0,0.0,0.0,82,0.00,,,0.00,WUHU216HW,2013-01-24 17:35:00,
2013-01-24 11:00:00,34.0,29.4,23.40,East,90,0.7,0.7,83,0.00,,,0.00,WUHU216HW,2013-01-24 18:00:00,
2013-01-24 11:05:00,34.0,29.4,23.40,East,90,0.7,0.7,83,0.00,,,0.00,WUHU216HW,2013-01-24 18:05:00,
2013-01-24 11:30:00,33.8,29.2,23.40,ENE,68,0.2,0.2,83,0.00,,,0.00,WUHU216HW,2013-01-24 18:30:00,
2013-01-24 11:35:00,33.8,29.2,23.40,ENE,68,0.2,0.2,83,0.00,,,0.00,WUHU216HW,2013-01-24 18:35:00,
2013-01-24 12:00:00,33.8,29.2,23.40,ENE,68,0.0,0.0,83,0.00,,,0.00,WUHU216HW,2013-01-24 19:00:00,
2013-01-24 12:05:00,33.8,29.2,23.40,ENE,68,0.0,0.0,83,0.00,,,0.00,WUHU216HW,2013-01-24 19:05:00,
2013-01-24 12:30:00,33.8,29.4,23.39,ENE,68,0.0,0.0,84,0.00,,,0.00,WUHU216HW,2013-01-24 19:30:00,
2013-01-24 12:35:00,33.8,29.4,23.39,ENE,68,0.0,0.0,84,0.00,,,0.00,WUHU216HW,2013-01-24 19:35:00,
2013-01-24 13:00:00,34.6,30.4,23.37,East,90,0.7,0.7,85,0.00,,,0.00,WUHU216HW,2013-01-24 20:00:00,
2013-01-24 13:05:00,34.6,30.4,23.37,East,90,0.7,0.7,85,0.00,,,0.00,WUHU216HW,2013-01-24 20:05:00,
2013-01-24 13:30:00,35.3,31.4,23.37,ENE,68,0.0,0.0,86,0.00,,,0.00,WUHU216HW,2013-01-24 20:30:00,
2013-01-24 13:35:00,35.3,31.4,23.37,ENE,68,0.0,0.0,86,0.00,,,0.00,WUHU216HW,2013-01-24 20:35:00,
2013-01-24 14:00:00,34.9,31.3,23.36,ENE,68,0.4,0.4,87,0.00,,,0.00,WUHU216HW,2013-01-24 21:00:00,
2013-01-24 14:05:00,34.9,31.3,23.36,ENE,68,0.4,0.4,87,0.00,,,0.00,WUHU216HW,2013-01-24 21:05:00,
2013-01-24 14:30:00,34.7,31.5,23.36,ENE,68,0.0,0.0,88,0.00,,,0.00,WUHU216HW,2013-01-24 21:30:00,
2013-01-24 14:35:00,34.7,31.5,23.36,ENE,68,0.0,0.0,88,0.00,,,0.00,WUHU216HW,2013-01-24 21:35:00,
2013-01-24 15:00:00,34.9,31.7,23.36,ENE,68,0.4,0.4,88,0.00,,,0.00,WUHU216HW,2013-01-24 22:00:00,
2013-01-24 15:05:00,34.9,31.7,23.36,ENE,68,0.4,0.4,88,0.00,,,0.00,WUHU216HW,2013-01-24 22:05:00,
2013-01-24 15:30:00,34.7,31.5,23.37,West,270,1.3,1.3,88,0.00,,,0.00,WUHU216HW,2013-01-24 22:30:00,
2013-01-24 15:35:00,34.7,31.5,23.37,West,270,1.3,1.3,88,0.00,,,0.00,WUHU216HW,2013-01-24 22:35:00,
2013-01-24 16:00:00,34.2,31.0,23.38,West,270,1.1,1.1,88,0.00,,,0.00,WUHU216HW,2013-01-24 23:00:00,
2013-01-24 16:05:00,34.2,31.0,23.38,West,270,1.1,1.1,88,0.00,,,0.00,WUHU216HW,2013-01-24 23:05:00,
2013-01-24 16:30:00,33.7,30.7,23.39,West,270,1.8,1.8,89,0.00,,,0.00,WUHU216HW,2013-01-24 23:30:00,
2013-01-24 16:35:00,33.7,30.7,23.39,West,270,1.8,1.8,89,0.00,,,0.00,WUHU216HW,2013-01-24 23:35:00,
2013-01-24 17:00:00,33.3,30.3,23.39,West,270,2.2,2.2,89,0.00,,,0.00,WUHU216HW,2013-01-25 00:00:00,
2013-01-24 17:05:00,33.3,30.3,23.39,West,270,2.2,2.2,89,0.00,,,0.00,WUHU216HW,2013-01-25 00:05:00,
2013-01-24 17:30:00,33.1,30.5,23.39,WNW,293,1.1,1.1,90,0.00,,,0.00,WUHU216HW,2013-01-25 00:30:00,
2013-01-24 17:35:00,33.1,30.5,23.39,WNW,293,1.1,1.1,90,0.00,,,0.00,WUHU216HW,2013-01-25 00:35:00,
2013-01-24 18:00:00,32.8,30.2,23.40,West,270,1.1,1.1,90,0.00,,,0.00,WUHU216HW,2013-01-25 01:00:00,
2013-01-24 18:05:00,32.8,30.2,23.40,West,270,1.1,1.1,90,0.00,,,0.00,WUHU216HW,2013-01-25 01:05:00,
2013-01-24 18:30:00,32.8,30.2,23.41,West,270,1.1,1.1,90,0.00,,,0.00,WUHU216HW,2013-01-25 01:30:00,
2013-01-24 18:35:00,32.8,30.2,23.41,West,270,1.1,1.1,90,0.00,,,0.00,WUHU216HW,2013-01-25 01:35:00,
2013-01-24 19:00:00,32.8,30.2,23.42,WNW,293,0.7,0.7,90,0.00,,,0.00,WUHU216HW,2013-01-25 02:00:00,
2013-01-24 19:05:00,32.8,30.2,23.42,WNW,293,0.7,0.7,90,0.00,,,0.00,WUHU216HW,2013-01-25 02:05:00,
2013-01-24 19:30:00,32.9,30.6,23.42,West,270,1.3,1.3,91,0.00,,,0.00,WUHU216HW,2013-01-25 02:30:00,
2013-01-24 19:35:00,32.9,30.6,23.42,West,270,1.3,1.3,91,0.00,,,0.00,WUHU216HW,2013-01-25 02:35:00,
2013-01-24 20:00:00,33.1,30.5,23.42,NE,45,0.0,0.0,90,0.00,,,0.00,WUHU216HW,2013-01-25 03:00:00,
2013-01-24 20:05:00,33.1,30.5,23.42,NE,45,0.0,0.0,90,0.00,,,0.00,WUHU216HW,2013-01-25 03:05:00,
2013-01-24 20:30:00,32.8,30.2,23.42,NE,45,0.0,0.0,90,0.00,,,0.00,WUHU216HW,2013-01-25 03:30:00,
2013-01-24 20:35:00,32.8,30.2,23.42,NE,45,0.0,0.0,90,0.00,,,0.00,WUHU216HW,2013-01-25 03:35:00,
2013-01-24 21:00:00,33.1,30.8,23.41,North,0,0.0,0.0,91,0.00,,,0.00,WUHU216HW,2013-01-25 04:00:00,
2013-01-24 21:05:00,33.1,30.8,23.41,North,0,0.0,0.0,91,0.00,,,0.00,WUHU216HW,2013-01-25 04:05:00,
2013-01-24 21:30:00,32.8,30.2,23.41,West,270,0.4,0.4,90,0.00,,,0.00,WUHU216HW,2013-01-25 04:30:00,
2013-01-24 21:35:00,32.8,30.2,23.41,West,270,0.4,0.4,90,0.00,,,0.00,WUHU216HW,2013-01-25 04:35:00,
2013-01-24 22:00:00,32.9,30.6,23.42,West,270,1.1,1.1,91,0.00,,,0.00,WUHU216HW,2013-01-25 05:00:00,
2013-01-24 22:01:00,32.9,30.6,23.42,West,270,1.1,1.1,91,0.00,,,0.00,WUHU216HW,2013-01-25 05:01:00,
2013-01-24 22:02:00,32.9,30.6,23.42,West,270,1.1,1.1,91,0.00,,,0.00,WUHU216HW,2013-01-25 05:02:00,
2013-01-24 22:03:00,32.9,30.6,23.42,West,270,1.1,1.1,91,0.00,,,0.00,WUHU216HW,2013-01-25 05:03:00,
2013-01-24 22:08:00,32.9,30.6,23.42,West,270,1.1,1.1,91,0.00,,,0.00,WUHU216HW,2013-01-25 05:08:00,
2013-01-24 22:30:00,32.8,30.4,23.42,WSW,248,0.0,0.0,91,0.00,,,0.00,WUHU216HW,2013-01-25 05:30:00,
2013-01-24 22:35:00,32.8,30.4,23.42,WSW,248,0.0,0.0,91,0.00,,,0.00,WUHU216HW,2013-01-25 05:35:00,
2013-01-24 23:00:00,32.8,30.4,23.43,WSW,248,0.0,0.0,91,0.00,,,0.00,WUHU216HW,2013-01-25 06:00:00,
2013-01-24 23:05:00,32.8,30.4,23.43,WSW,248,0.0,0.0,91,0.00,,,0.00,WUHU216HW,2013-01-25 06:05:00,
2013-01-24 23:30:00,32.8,30.4,23.43,WSW,248,0.0,0.0,91,0.00,,,0.00,WUHU216HW,2013-01-25 06:30:00,
2013-01-24 23:35:00,32.8,30.4,23.43,WSW,248,0.0,0.0,91,0.00,,,0.00,WUHU216HW,2013-01-25 06:35:00,